Terminal Aerodrome Forecast
Issued by NWS Austin/San Antonio, TX

Home | Current Version | Previous Version | Text Only | Print | Product List | Glossary On
Versions: 1 2 3 4 5 6 7 8 9 10 11 12 13 14 15 16 17 18 19 20 21 22 23 24 25
000
FTUS44 KEWX 081348 AAA
TAFAUS
TAF AMD
KAUS 081348Z 0814/0918 36020G30KT P6SM OVC019
     FM081800 01025G35KT P6SM OVC025
     FM082200 01021G27KT P6SM OVC050
     FM091500 36008KT P6SM OVC080=

USA.gov is the U.S. government's official web portal to all federal, state and local government web resources and services.